Temp
7 7 7 7 7 6 7 7 7 7 7 7 7 7 7 7 7 8 8 9 11 13 14 14 14 15 15 16 16 17 18 19 19 19 19 20 20 19 19 20 20 20 19 19 19 20 19 19 20 19 20 20 20 20 20 20 20 21 22 21 21 21 21 22 22 21 22 22 22 21 21 22 22 21 20 20 20 19 19 18 17 17 17 17 16 16 17 19
7 7 7 7 7 6 6 6 6 7 7 7 7 7 7 7 7 8 9 11 12 13 14 14 15 15 15 16 16 17 18 19 19 19 20 20 20 19 19 20 19 19 19 19 19 19 20 20 19 18 21 21 20 20 21 20 20 21 20 21 22 21 21 21 21 21 21 22 21 20 20 21 22 21 20 21 20 19 20 19 17 18 17 17 16 16 17 18
7 7 7 7 6 6 6 6 6 6 7 7 7 7 7 7 7 8 10 12 13 14 14 15 15 15 16 16 17 17 18 18 19 19 20 20 20 20 19 19 19 19 19 19 19 19 19 19 18 19 22 21 20 20 21 21 20 20 20 22 22 21 21 19 20 20 20 21 22 21 20 21 21 20 20 21 20 19 21 20 19 19 18 18 17 16 17 18
7 7 7 7 6 7 7 6 6 6 7 7 7 7 7 7 8 9 11 12 13 14 14 15 15 15 16 17 17 17 17 18 19 20 20 20 20 20 19 19 19 19 19 18 18 18 18 18 17 20 22 21 19 20 21 21 20 20 20 23 22 20 21 20 20 20 19 20 21 21 21 21 20 19 20 21 21 21 21 20 20 20 18 17 17 16 17 18
7 7 7 7 7 7 7 6 7 7 7 7 7 7 7 7 8 11 12 13 13 14 14 15 15 15 16 17 17 17 18 19 20 20 21 20 20 20 20 19 19 19 19 18 18 18 18 18 19 21 22 21 20 21 21 19 19 21 20 21 20 19 22 21 19 19 19 19 21 21 22 21 19 19 20 21 23 23 22 20 20 20 19 18 17 17 17 18
7 7 7 7 7 7 7 6 6 7 7 7 7 7 7 8 9 11 12 13 14 14 15 15 15 16 17 17 17 17 18 19 19 20 21 20 21 20 20 20 20 19 19 18 17 18 18 19 20 22 22 21 20 21 21 18 18 21 21 18 18 18 21 21 19 19 18 20 22 21 21 20 20 21 19 20 22 22 20 18 19 19 19 18 17 17 18 19
7 7 7 7 7 7 6 6 7 6 7 7 7 7 7 8 10 12 13 13 14 14 15 15 15 16 17 17 17 17 18 19 19 20 20 21 21 20 20 20 20 20 19 18 18 19 20 21 22 21 21 21 20 20 20 18 19 22 21 19 18 18 20 20 19 19 18 21 20 19 20 20 21 21 18 20 21 19 17 16 18 18 17 17 17 17 18 18
7 7 7 7 7 7 7 7 7 6 7 7 7 7 8 10 12 12 13 14 14 15 15 15 15 16 17 17 17 18 18 19 20 20 20 21 21 20 21 20 20 20 19 19 19 20 20 21 21 20 21 21 20 20 19 20 21 21 21 19 18 18 19 18 17 18 18 19 18 19 20 19 18 18 19 21 20 17 16 16 17 17 16 16 17 18 17 17
7 7 7 7 7 7 7 7 7 7 7 7 8 9 10 12 13 13 14 14 14 15 15 15 15 16 16 16 17 19 19 19 20 20 20 20 21 21 21 20 20 20 20 20 19 20 20 20 20 20 21 20 20 20 19 21 22 21 20 20 19 19 18 17 18 18 18 18 19 20 20 18 17 17 20 21 18 16 16 17 17 16 16 16 17 17 17 17
7 7 7 7 7 7 7 7 6 7 7 7 8 10 12 13 13 14 14 14 15 15 15 15 15 16 16 16 17 19 20 20 20 20 20 20 20 21 21 20 20 20 20 20 19 20 20 20 19 19 21 20 20 19 18 21 21 19 19 19 19 18 17 18 18 18 18 18 19 20 19 18 17 17 22 20 16 15 16 17 16 17 17 17 17 16 16 16
7 7 7 7 7 7 7 7 7 7 8 9 10 11 13 13 14 14 14 15 15 15 15 15 15 16 16 17 18 19 20 20 20 20 20 20 21 21 21 21 20 20 20 20 19 20 20 20 18 19 21 21 20 19 18 19 19 18 19 20 19 19 18 18 19 18 19 19 18 20 19 18 18 19 21 19 15 16 17 17 16 17 18 17 17 16 15 16
7 7 7 7 7 8 9 9 9 10 11 11 12 12 13 14 14 15 15 15 15 15 15 15 16 15 15 17 18 19 20 20 20 21 21 21 21 21 21 21 21 20 21 20 20 20 20 19 19 21 21 20 20 20 19 18 17 18 20 20 19 19 20 19 18 18 19 19 17 19 20 19 19 20 20 17 15 16 16 17 17 17 17 17 16 16 16 16
7 7 7 7 10 12 12 12 12 13 13 13 13 13 14 14 14 15 15 15 15 15 15 15 15 15 16 18 19 20 20 20 21 21 21 21 21 21 21 21 21 21 21 21 20 20 20 19 20 21 20 20 20 19 19 17 17 19 19 19 19 20 20 18 17 17 19 18 16 19 20 20 20 20 19 16 15 16 17 17 17 17 16 16 16 16 16 16
7 7 8 11 13 14 14 14 14 14 14 14 14 14 14 14 15 15 15 15 15 15 15 15 15 15 16 19 20 20 20 20 20 21 21 21 21 21 21 21 21 21 21 21 20 20 19 19 19 20 18 19 19 18 19 18 17 18 18 18 18 19 20 18 16 16 19 18 16 19 20 20 21 20 18 14 15 17 18 18 17 17 16 16 16 15 16 16
7 8 11 14 14 14 14 15 15 15 15 15 15 15 15 15 15 15 15 15 15 15 15 15 15 15 17 19 20 20 20 20 20 20 21 21 21 21 21 21 21 21 21 21 20 20 19 19 20 20 18 17 18 19 19 18 17 17 18 19 17 18 20 18 16 16 19 18 17 19 20 20 20 20 17 14 15 17 18 19 17 17 16 16 16 15 16 16
9 11 13 14 14 15 15 15 15 15 16 15 16 16 15 16 15 15 15 15 15 15 14 15 14 15 18 20 20 20 20 20 20 20 21 21 21 21 21 21 21 21 21 20 20 20 19 20 18 17 18 18 19 20 19 19 18 17 18 19 17 18 19 19 17 16 17 18 18 19 20 20 20 20 17 14 15 16 18 19 17 17 16 16 16 16 15 16
11 13 14 15 15 15 15 16 16 16 16 16 16 16 16 16 16 15 15 15 15 15 14 14 14 15 18 20 20 20 19 19 20 20 21 21 21 21 21 21 20 19 20 19 20 19 19 19 16 16 17 17 17 19 20 19 19 18 18 18 16 17 18 19 19 16 16 18 19 18 19 20 20 19 17 15 15 16 17 19 17 17 16 16 16 16 15 15
13 14 15 15 15 16 16 16 16 16 16 16 16 16 16 16 15 15 15 15 14 14 14 15 15 16 19 20 19 19 18 19 20 20 20 20 21 21 21 20 18 18 20 20 20 19 19 18 17 19 19 17 18 20 20 19 19 19 18 18 17 16 17 18 18 17 16 18 19 18 19 20 20 19 18 16 15 16 17 18 18 17 16 16 16 16 16 16
14 15 16 16 16 16 16 16 16 17 17 16 16 16 15 15 15 15 14 14 15 16 17 16 17 18 19 19 18 19 19 19 19 20 20 20 20 20 20 19 18 19 20 20 20 18 18 19 19 20 20 19 20 20 20 20 19 19 18 19 18 18 18 17 17 16 15 18 19 18 19 19 20 20 19 17 14 16 17 17 17 16 16 16 16 16 16 16
15 15 16 16 16 16 16 17 17 17 17 17 16 16 16 15 16 16 15 14 16 17 18 18 17 18 18 18 18 19 19 19 20 20 20 20 20 20 19 19 19 20 19 19 20 16 16 19 20 19 20 19 18 17 18 18 17 18 18 18 17 17 18 17 16 15 14 17 18 16 17 18 18 20 20 17 14 15 17 16 16 16 16 16 16 16 16 16
15 16 16 16 16 16 17 17 17 17 17 17 17 16 15 15 16 16 15 15 16 15 16 17 16 17 18 18 18 19 19 19 19 19 20 19 20 20 19 19 20 20 17 16 17 16 16 19 20 19 18 17 14 13 15 16 16 17 18 18 16 16 18 17 15 15 14 17 17 14 16 18 18 19 19 17 15 17 17 17 17 17 15 15 16 16 16 16
15 16 16 16 17 17 17 17 17 17 17 17 17 15 15 14 15 15 14 16 16 14 15 15 15 16 17 17 18 18 18 19 20 19 20 19 19 20 19 19 20 19 16 16 17 18 19 20 19 15 13 13 12 12 16 17 16 17 17 17 18 16 16 16 15 14 14 17 18 15 17 19 18 18 17 16 16 16 16 15 16 16 15 15 15 16 16 16
16 16 16 17 17 17 17 17 17 17 17 17 16 15 14 15 15 15 14 15 15 15 15 16 16 16 17 17 18 18 18 19 20 20 19 20 19 19 19 19 19 18 17 18 19 19 19 19 16 12 12 15 15 14 17 17 16 16 17 18 18 15 16 18 16 15 14 15 16 16 17 18 18 17 17 16 14 14 14 14 14 13 14 15 15 15 15 15
15 16 16 17 17 17 17 17 17 17 17 16 16 15 15 15 15 15 15 15 15 16 16 16 16 17 18 18 18 18 19 18 19 20 19 20 19 18 19 19 18 18 18 18 19 19 19 16 12 11 13 16 17 15 16 18 17 15 16 18 18 16 17 17 16 15 14 14 14 16 18 18 17 17 18 17 14 15 15 14 15 14 13 13 13 14 14 15
16 16 16 17 17 17 17 17 17 17 17 17 16 16 16 16 16 16 16 15 16 17 17 16 16 17 18 18 18 19 19 18 19 19 18 19 19 18 18 17 18 19 17 16 18 19 19 13 10 13 15 16 17 17 16 18 18 16 16 17 18 18 17 16 15 16 17 16 14 15 17 18 18 17 19 17 15 17 16 15 16 16 14 13 14 14 14 14
16 16 16 17 17 17 17 17 17 17 17 17 17 16 16 16 16 16 16 16 17 18 18 18 18 18 18 19 18 18 19 19 18 17 18 19 19 19 19 17 17 18 16 16 17 17 16 11 11 15 15 16 17 17 16 16 17 18 17 16 16 17 17 16 16 17 18 17 14 13 16 18 17 18 19 16 16 18 17 16 17 16 15 15 15 15 15 14
16 16 16 17 17 17 17 17 17 17 17 17 17 17 16 16 16 16 16 17 17 17 18 19 19 19 19 18 18 19 19 19 18 18 18 19 19 19 19 18 17 17 15 16 18 16 14 13 13 14 16 16 17 18 16 15 18 18 16 14 15 16 17 16 17 17 16 16 14 13 16 17 17 18 17 14 16 19 19 18 18 17 16 16 15 15 15 15
16 16 16 17 17 17 17 17 16 17 17 17 17 17 17 17 16 17 17 17 17 17 18 19 19 19 19 18 18 19 19 18 19 19 17 18 19 19 20 19 18 18 15 16 19 16 14 16 16 15 16 16 17 18 16 15 18 17 13 13 14 15 16 16 16 16 15 15 16 15 15 16 17 18 16 15 17 19 19 19 19 18 18 17 16 16 15 15
16 17 17 16 16 17 17 16 17 17 17 17 17 17 17 16 17 17 17 16 17 18 19 19 19 19 18 18 18 18 18 18 19 19 18 18 19 19 19 18 18 18 15 16 19 17 15 16 16 16 17 17 17 15 14 17 18 14 12 13 14 13 14 14 15 16 15 15 17 16 15 17 18 18 17 17 17 19 19 19 19 18 17 17 17 16 16 15
16 17 17 17 16 16 16 17 17 17 17 17 17 17 17 16 17 17 17 16 17 18 18 18 19 18 17 18 18 18 18 19 19 18 18 19 18 18 16 15 17 18 16 16 17 17 15 14 14 16 17 17 16 13 12 15 15 13 14 15 15 14 14 14 15 16 15 15 16 15 15 16 17 18 18 17 18 18 19 20 19 19 18 17 16 16 16 15
17 18 18 17 17 16 16 17 17 17 17 17 17 17 17 17 16 17 16 16 17 17 17 17 17 17 16 16 17 18 18 18 18 18 19 18 18 18 17 17 18 18 17 17 17 16 15 15 15 16 16 16 15 14 12 12 12 14 16 17 17 16 16 15 15 15 15 16 15 13 13 15 16 18 18 18 17 17 18 19 19 19 19 18 17 16 16 15
17 18 18 17 17 16 16 17 17 17 17 17 17 17 17 17 16 16 16 16 16 17 17 16 17 17 15 15 16 17 17 18 18 18 19 18 18 18 18 18 19 18 17 18 17 16 17 16 15 16 16 16 17 16 14 13 13 15 17 17 17 17 16 15 16 15 15 16 14 11 13 15 16 18 18 18 18 17 17 18 18 18 18 18 17 15 15 14
17 18 17 17 16 16 16 16 16 17 17 17 17 17 17 17 16 15 15 16 16 16 16 16 16 15 15 16 17 17 17 17 17 17 18 17 17 18 17 17 17 18 18 16 16 17 18 17 15 16 17 17 18 18 16 16 15 16 17 17 17 16 15 14 14 14 15 16 13 12 13 15 16 18 18 18 18 18 16 16 16 16 16 16 15 14 13 13
17 17 17 16 16 15 15 16 16 17 17 17 17 17 17 17 15 14 14 15 16 16 16 16 15 15 15 16 17 16 16 17 16 17 17 16 17 17 17 16 16 17 17 16 16 17 17 17 17 17 18 17 18 19 18 17 16 16 17 17 17 17 16 15 16 16 16 15 13 12 14 15 17 18 17 17 17 15 15 14 13 13 13 14 13 13 13 14
16 16 16 16 16 15 16 16 17 17 16 17 17 17 17 16 14 14 14 15 15 15 15 15 15 16 17 16 15 15 16 17 16 16 17 17 17 17 18 17 16 16 17 16 16 15 16 18 18 17 16 16 18 19 18 17 16 15 15 17 17 18 18 16 14 15 15 15 13 13 14 16 17 17 15 15 15 15 15 14 13 13 13 13 14 15 15 16
16 16 16 16 15 16 17 17 18 17 16 17 18 16 16 15 14 14 15 15 15 15 15 15 16 16 16 16 15 15 16 16 16 16 17 16 16 16 17 17 16 16 17 17 16 16 16 17 17 16 15 16 18 18 17 18 18 15 15 17 16 16 18 15 12 11 12 14 15 13 14 16 16 17 16 15 15 16 15 15 14 15 14 14 16 17 17 17
16 16 15 15 15 16 17 17 17 17 17 17 17 15 14 14 14 14 15 15 15 15 15 15 15 15 15 15 15 16 16 16 16 16 16 16 16 16 16 16 15 16 17 17 16 16 16 17 17 17 17 17 16 17 17 16 17 16 16 17 16 15 16 16 15 13 12 14 14 13 14 16 17 17 17 15 16 16 16 16 16 15 15 16 18 19 18 19
16 16 15 14 15 15 16 17 16 17 17 17 15 14 13 14 14 14 14 14 15 15 15 15 15 14 14 14 15 15 16 16 15 16 16 16 16 16 16 16 16 16 16 16 16 16 15 16 17 16 17 16 15 17 17 16 15 16 16 17 16 16 16 16 15 15 14 14 13 12 13 14 16 18 17 17 17 17 17 17 16 16 16 17 18 18 18 18
16 16 15 14 15 15 16 16 16 17 17 15 14 13 13 14 14 14 14 14 14 14 14 14 14 14 14 14 15 15 15 15 15 15 15 16 16 16 15 15 16 16 16 16 16 16 15 16 16 15 15 15 16 17 17 16 15 15 15 16 16 17 17 16 15 16 16 14 14 14 13 14 17 17 18 19 18 18 18 17 16 17 17 17 18 18 18 18
14 16 15 14 15 15 16 16 17 17 16 13 13 13 13 13 14 14 14 14 14 15 14 14 14 14 14 14 14 14 14 15 15 15 15 15 16 16 15 15 15 15 15 16 16 15 15 15 15 15 15 15 16 17 17 18 17 16 16 16 16 16 16 16 16 16 17 15 14 14 14 16 18 16 18 20 19 18 18 17 17 17 17 17 17 18 18 18
12 16 15 14 16 15 16 16 14 13 13 12 12 13 13 13 14 14 13 13 14 15 14 14 14 14 14 14 14 14 14 14 15 15 15 15 16 16 14 14 15 15 15 16 16 15 15 15 14 15 16 16 17 18 17 18 18 17 17 17 17 17 16 16 15 15 16 16 15 15 15 18 18 16 17 19 19 19 18 17 17 17 17 17 17 17 17 17
13 15 14 14 16 16 16 15 11 10 12 12 12 12 13 13 13 13 13 13 14 14 14 14 14 13 13 13 13 13 14 14 14 14 15 15 15 16 14 12 14 15 15 15 15 14 14 14 14 14 15 16 17 17 15 14 16 17 17 17 18 17 17 17 17 15 15 15 15 15 15 17 18 16 16 18 18 18 17 16 17 17 17 17 17 16 15 14
13 14 14 15 15 16 16 14 11 11 12 12 11 11 12 12 13 13 13 13 13 13 13 13 13 13 13 13 12 13 13 13 14 14 14 15 15 14 13 12 14 15 15 15 14 14 13 13 13 13 15 15 16 17 15 13 14 16 16 16 16 16 17 17 16 16 15 15 15 15 13 16 18 15 13 15 15 14 14 14 16 18 18 17 16 15 14 13
10 11 12 14 15 16 15 12 12 12 11 11 12 12 12 12 12 12 12 12 12 12 12 12 12 12 12 12 12 13 13 13 13 13 13 14 14 14 12 12 14 14 15 15 14 13 13 13 12 12 13 13 15 16 15 15 15 14 14 14 14 15 16 15 14 14 14 15 16 15 14 17 17 14 12 13 13 13 14 13 14 16 17 16 15 14 13 12
10 11 11 12 13 13 11 10 11 11 10 11 11 11 11 11 11 11 11 11 11 11 11 11 11 11 11 11 11 12 12 12 12 12 12 12 13 13 12 12 13 13 14 14 13 12 12 12 12 12 11 12 12 14 14 14 13 13 13 14 14 14 14 14 14 14 13 14 15 15 16 17 16 14 14 14 13 14 15 14 13 13 14 14 13 13 12 11
11 12 11 11 11 10 9 8 8 10 10 10 10 10 10 11 11 10 10 11 10 10 11 11 11 11 10 10 11 11 11 12 11 11 12 12 12 13 12 12 13 13 13 13 12 12 11 10 12 12 11 11 12 13 13 12 11 11 12 13 13 13 13 13 13 13 13 14 14 15 16 17 16 16 16 16 15 15 16 16 14 13 13 12 12 12 11 10
10 10 9 10 10 10 9 8 7 9 9 9 10 9 9 9 10 10 10 10 10 10 10 10 10 10 10 9 9 10 10 11 11 11 11 11 11 11 11 11 12 13 13 12 12 12 11 10 11 11 11 12 12 12 13 12 11 11 11 11 12 12 12 12 12 13 14 14 13 15 15 15 15 16 16 16 16 15 16 16 15 14 13 13 12 12 11 10
9 8 6 7 8 9 9 8 7 8 8 8 8 8 8 9 9 9 10 10 9 10 10 10 9 9 9 8 8 9 9 10 10 10 10 10 10 10 10 11 12 12 12 12 11 11 11 10 11 11 11 12 11 11 12 11 11 11 11 11 11 12 12 11 11 12 14 13 14 15 15 14 15 16 16 17 17 17 17 16 14 14 13 12 12 11 11 11
7 7 5 5 7 7 7 6 6 7 8 8 8 7 8 8 8 8 8 8 9 9 9 9 9 9 8 8 8 9 9 9 9 9 8 9 9 9 9 10 11 12 12 12 11 11 10 11 11 11 10 11 11 11 12 11 11 11 10 11 11 11 11 11 11 12 12 12 13 14 14 14 15 16 17 17 17 16 14 13 12 13 13 12 11 11 12 12
6 6 6 6 6 6 5 5 6 7 8 7 7 7 7 7 7 7 7 8 8 9 8 9 9 8 8 7 7 8 9 9 9 8 8 8 8 8 9 10 11 11 11 11 11 10 10 11 11 10 10 10 11 11 11 11 11 11 11 11 11 10 10 10 10 11 11 11 12 12 12 13 14 15 16 16 14 13 13 13 13 13 12 12 12 12 12 12
4 4 4 6 7 6 5 5 5 6 7 7 7 7 6 6 7 6 6 7 8 8 8 8 8 7 8 7 7 8 9 8 8 8 8 8 8 9 9 9 10 10 10 10 10 10 10 10 10 10 9 10 11 11 11 11 10 10 10 11 11 11 11 11 11 11 11 11 11 11 11 13 15 14 14 15 14 13 13 14 13 12 11 11 12 12 12 13
3 3 3 5 7 5 4 5 5 6 7 7 6 6 6 6 6 5 6 7 7 8 8 7 7 7 7 8 8 8 8 8 8 8 8 8 8 9 9 9 9 9 9 9 10 10 10 10 10 10 9 9 11 11 11 10 9 9 11 12 11 11 11 11 11 11 11 11 11 11 12 14 15 13 14 15 15 14 14 14 13 12 11 11 12 12 12 12
Height
807 806 805 804 803 803 802 801 801 800 799 799 798 797 797 797 796 796 795 795 795 794 794 794 793 792 792 790 790 789 788 788 787 787 786 786 785 785 785 785 785 785 785 785 785 785 786 786 787 787 786 788 789 790 790 791 792 793 800 806 807 810 808 803 804 804 802 802 803 804 803 803 805 807 807 807 809 812 813 814 815 814 814 814 814 814 815 816
806 805 804 803 802 802 801 801 800 799 798 798 797 797 796 796 795 795 794 794 794 794 793 793 792 792 791 790 789 788 787 787 786 786 785 785 785 785 785 785 785 785 785 785 785 785 785 786 786 786 786 788 791 791 791 792 792 797 805 806 805 806 804 802 803 803 802 801 802 805 805 803 804 806 806 808 813 814 812 816 816 815 815 815 815 815 815 817
805 804 804 803 802 801 800 800 799 798 798 797 797 796 796 795 794 794 794 794 793 793 793 792 792 791 790 789 788 787 786 786 786 786 785 785 785 785 785 784 785 784 784 784 785 785 785 785 786 786 787 789 792 792 792 793 794 799 803 802 801 802 802 803 803 802 802 801 802 805 805 805 806 807 806 808 814 814 812 814 815 815 816 816 816 816 816 817
805 804 803 802 801 800 800 799 798 798 797 796 796 795 795 794 794 793 793 793 793 793 792 792 791 790 790 788 787 787 785 786 787 786 785 785 785 785 784 784 784 784 784 784 784 784 784 785 785 786 787 791 794 793 793 794 796 799 800 799 799 801 801 801 802 802 803 803 802 803 804 806 807 808 807 807 811 813 810 810 811 812 814 815 816 816 816 817
804 803 802 801 800 800 799 798 797 797 796 796 795 794 794 793 793 793 792 792 792 792 791 791 790 789 789 787 787 785 785 790 789 785 785 785 785 785 784 784 783 783 783 783 784 784 784 785 785 786 788 791 794 794 795 796 797 798 800 800 801 803 800 799 802 803 805 805 802 803 803 805 807 807 808 806 807 808 807 808 808 808 810 812 814 815 816 816
803 802 801 800 800 799 798 797 797 796 795 795 794 794 793 793 792 792 792 792 792 791 791 790 790 789 788 786 786 784 786 791 787 784 785 785 784 785 783 783 782 782 782 783 784 784 784 785 785 787 789 792 796 795 796 799 798 797 800 804 805 804 799 800 803 804 805 803 802 804 804 805 806 807 810 808 806 806 807 808 808 808 810 811 813 815 815 816
802 801 800 800 799 798 797 796 796 795 795 794 794 793 792 792 792 791 791 791 791 791 790 790 789 788 787 786 786 785 786 787 785 784 785 784 785 784 783 783 782 782 782 782 783 783 784 784 786 789 790 794 797 797 797 799 797 796 799 804 805 805 801 802 804 805 805 803 804 806 805 807 806 808 812 809 806 808 808 808 808 809 812 813 813 814 814 815
802 801 799 799 798 797 796 795 795 794 794 793 793 792 792 791 791 791 791 790 790 790 790 789 789 788 786 785 785 786 787 785 784 784 784 784 785 784 783 783 782 782 782 782 783 783 784 785 787 789 791 794 795 797 798 797 797 796 799 802 803 804 804 806 806 806 806 806 807 806 806 810 811 811 811 807 807 809 809 808 809 810 813 814 813 814 814 815
801 800 799 798 797 796 795 794 794 793 793 792 792 791 791 790 790 790 790 790 790 790 790 789 788 787 786 785 785 786 786 784 784 784 784 784 784 784 784 783 783 783 782 782 783 782 784 786 788 788 789 795 795 796 798 797 797 797 799 801 802 804 806 807 807 806 808 808 807 806 809 812 813 813 808 805 809 810 810 809 810 811 813 814 813 814 814 815
800 799 798 797 796 795 794 793 793 792 792 791 791 790 790 790 789 789 789 789 789 789 789 788 788 787 786 785 785 787 786 783 784 784 784 784 784 784 784 784 784 783 783 783 783 783 784 784 786 786 787 793 795 798 799 797 797 799 800 802 802 805 807 807 807 807 807 807 807 807 811 812 812 813 807 806 811 811 810 811 812 812 812 813 813 814 815 815
799 798 797 796 794 794 793 792 792 791 791 790 790 789 789 789 789 789 789 789 789 789 788 788 787 787 786 785 787 788 784 783 784 783 784 784 784 784 784 784 784 784 784 783 784 784 783 784 785 786 787 791 794 798 800 798 799 800 800 802 805 805 806 807 807 808 807 807 809 808 812 814 813 812 807 809 812 811 811 812 813 812 811 813 814 815 816 815
798 797 796 794 793 792 792 791 791 790 789 789 789 789 789 788 788 788 788 788 788 788 788 788 787 786 786 786 787 785 782 783 783 783 784 784 784 784 784 784 784 784 784 784 784 784 784 785 784 786 789 791 795 799 799 800 802 802 801 804 808 807 806 808 808 810 808 809 811 809 813 815 812 810 808 811 813 812 813 812 813 813 813 814 815 816 816 816
798 796 794 793 792 792 791 790 790 789 789 788 788 788 788 788 788 787 787 788 788 788 788 787 787 786 786 785 784 782 782 783 782 783 784 783 784 784 784 784 784 784 784 784 785 785 785 785 785 787 789 791 797 799 798 802 804 804 805 808 811 810 810 810 812 812 809 811 812 810 815 815 810 808 808 813 813 813 814 813 813 813 814 815 816 816 816 815
797 795 794 793 792 791 791 790 789 789 788 788 787 787 787 787 787 787 787 787 787 787 787 787 787 786 786 784 781 781 782 782 782 783 783 783 784 784 784 784 784 785 785 785 785 785 785 785 785 787 791 794 797 798 801 806 807 808 810 813 816 815 811 811 815 814 809 812 812 810 815 814 808 807 809 814 813 811 812 812 813 813 815 815 815 816 815 815
796 794 793 792 792 791 791 790 789 788 788 787 787 786 786 786 786 786 786 787 787 787 787 787 786 786 787 784 780 781 781 781 782 782 782 783 783 784 784 784 784 784 784 785 785 785 785 786 786 790 795 796 796 799 805 809 811 815 813 814 821 817 811 812 816 815 810 811 812 811 814 812 809 806 809 814 813 811 810 810 812 812 813 814 814 815 814 814
795 794 793 792 792 791 791 790 789 788 787 786 785 785 785 785 785 786 786 786 786 787 787 787 786 786 787 784 781 781 781 781 781 782 782 783 783 784 784 784 784 784 785 785 785 786 786 787 793 798 798 798 800 801 807 811 813 818 815 814 821 818 813 814 814 815 813 812 811 812 813 811 809 806 809 815 814 812 811 809 812 812 812 812 811 812 813 813
795 794 793 792 792 791 790 790 789 788 786 785 784 783 783 784 784 785 786 786 786 787 786 787 787 787 785 781 781 782 782 782 781 782 782 782 783 783 784 784 785 785 785 785 786 787 787 791 798 801 801 805 807 802 808 816 815 817 817 818 825 824 818 815 814 817 816 813 811 813 813 808 807 808 811 814 814 814 812 809 810 811 811 811 810 811 811 812
795 794 793 793 792 791 791 790 789 787 786 785 783 783 783 784 784 785 786 786 786 787 787 787 786 788 787 782 782 783 782 781 782 782 782 783 783 783 784 784 785 786 786 787 788 788 790 794 798 798 801 807 806 803 809 816 813 814 816 816 823 826 823 819 816 818 817 813 813 814 813 807 805 808 809 811 814 813 810 808 809 810 810 809 809 809 809 810
795 794 793 793 792 792 791 790 788 787 786 784 784 784 784 784 784 785 786 786 787 786 787 787 785 787 788 784 783 782 781 781 781 781 782 783 783 784 784 784 786 786 789 791 791 793 795 796 799 801 803 804 803 802 804 807 807 810 814 814 817 819 819 819 817 820 821 815 813 814 812 809 806 805 805 810 815 813 810 810 810 809 809 808 807 806 806 807
795 794 793 793 792 792 791 790 789 788 786 785 784 784 785 788 787 786 786 786 785 784 784 785 784 785 785 783 782 782 781 781 781 782 782 782 783 784 785 786 787 787 793 796 795 800 801 800 802 803 803 803 806 809 808 809 812 812 814 816 821 821 816 817 819 821 822 815 815 820 816 812 810 805 803 809 814 813 809 810 808 807 807 805 804 803 803 803
795 794 793 793 792 792 791 790 790 788 787 786 785 786 791 794 793 792 790 785 783 783 783 783 784 783 782 782 782 782 782 781 781 782 782 783 783 784 788 788 789 793 800 803 801 801 801 802 803 803 805 808 815 820 814 813 816 814 815 817 822 825 818 817 821 822 822 816 817 824 818 810 809 805 802 806 810 808 805 805 804 803 805 805 803 800 800 800
795 794 793 793 792 792 791 791 790 789 789 787 786 789 793 795 794 794 794 790 784 783 783 783 784 783 781 781 782 782 784 784 782 782 782 783 783 785 790 790 792 797 803 804 801 801 802 802 803 809 817 817 820 822 813 812 817 815 818 817 817 823 821 820 823 823 823 816 813 820 816 806 806 805 803 806 808 805 804 805 803 802 804 803 802 800 798 799
795 794 794 793 792 792 792 791 791 790 789 789 789 791 793 793 792 792 793 794 789 783 783 783 784 783 782 781 780 782 784 785 784 782 781 782 784 787 789 791 795 799 801 800 799 803 804 803 808 818 819 812 815 819 812 813 818 817 817 814 815 825 823 816 819 823 825 822 817 818 815 807 804 805 802 804 808 806 805 805 804 804 803 800 800 800 799 798
795 794 794 793 793 792 792 791 791 791 790 790 790 791 792 791 791 791 792 795 794 786 782 782 782 782 782 779 779 781 783 784 784 782 781 782 786 788 788 792 796 798 801 800 800 801 801 807 817 821 816 808 811 816 813 810 815 821 819 814 815 820 818 816 820 823 823 825 823 818 813 807 805 806 801 801 807 804 802 803 801 801 801 800 800 799 799 797
795 794 794 793 793 792 791 791 791 791 791 791 791 791 791 790 790 790 791 796 796 787 781 782 782 781 780 779 780 780 781 783 782 781 781 781 785 788 791 794 794 798 804 805 803 798 800 815 821 816 813 810 808 812 813 809 812 818 815 811 811 811 814 819 821 820 818 821 824 823 818 810 805 804 800 801 805 801 800 802 798 797 799 799 799 797 797 796
795 794 794 793 792 792 791 791 791 791 791 790 791 790 790 789 789 790 792 798 797 788 784 782 783 783 781 781 781 780 783 784 781 781 782 781 783 785 790 796 796 799 805 805 803 802 807 819 819 811 811 810 808 810 813 812 813 814 811 811 814 812 813 818 817 817 817 819 827 828 822 815 807 800 798 804 805 798 797 798 795 795 796 795 795 795 794 795
795 794 793 792 792 791 791 790 791 791 790 791 791 790 789 788 789 789 792 802 802 793 788 784 783 784 782 782 781 782 788 787 781 782 782 782 782 783 788 795 797 799 804 804 801 805 810 815 816 812 810 810 809 807 810 813 811 810 812 815 817 813 814 817 816 817 820 821 826 828 823 820 813 801 802 809 805 795 793 794 793 793 794 793 794 793 793 793
794 793 793 792 791 791 790 791 791 791 791 791 790 789 789 787 788 789 795 809 807 793 789 786 782 782 781 782 782 784 787 785 784 785 782 782 783 783 788 792 793 796 802 802 800 805 808 807 808 809 809 811 805 801 807 809 806 810 818 820 818 817 817 817 816 819 826 824 820 823 825 822 813 802 803 808 802 795 793 792 791 791 791 791 792 792 791 792
793 792 792 791 791 791 791 791 791 790 791 790 789 789 788 787 788 791 800 811 804 790 789 787 783 784 784 783 783 784 784 783 786 785 781 783 783 783 789 793 794 797 801 801 798 801 805 803 803 804 805 803 800 805 809 804 805 814 821 820 819 823 822 822 821 819 827 827 817 818 822 818 810 800 800 804 801 796 792 789 789 790 791 791 790 790 790 791
792 791 791 790 790 790 790 791 790 790 790 789 789 788 787 788 791 798 808 810 801 793 791 788 787 790 790 788 787 786 786 785 784 784 783 784 784 785 791 794 794 796 800 802 799 800 803 804 804 801 798 796 801 812 815 810 811 816 816 814 816 821 821 824 824 821 826 827 817 818 822 819 813 801 796 799 796 792 789 788 788 787 789 791 790 789 789 789
791 790 790 789 790 790 790 790 790 790 790 789 789 787 787 792 797 807 813 807 801 798 794 793 794 793 794 796 793 788 787 787 785 785 786 786 787 788 792 794 794 798 801 800 799 802 804 804 801 797 795 798 801 810 816 816 817 815 810 810 814 818 820 823 824 826 830 823 818 827 828 823 817 801 792 793 792 792 790 787 786 785 785 787 787 788 788 789
790 789 789 789 789 790 790 790 790 790 790 789 788 787 790 797 804 812 812 804 804 804 799 800 798 795 798 800 796 791 790 789 787 787 787 790 791 790 791 793 793 799 804 802 801 801 798 797 799 796 794 796 796 803 814 816 815 813 809 811 815 818 824 827 824 828 828 817 822 834 829 822 815 798 790 792 789 789 790 787 786 785 784 784 786 787 788 789
790 789 789 789 790 790 790 790 790 790 789 788 788 789 794 802 810 816 814 807 807 805 801 801 799 799 802 798 794 794 793 791 789 789 790 793 794 792 793 795 793 795 801 806 806 801 794 794 798 797 793 790 790 796 805 808 810 809 805 807 812 818 831 835 829 831 826 816 825 835 828 822 812 795 788 788 784 785 789 789 788 787 786 785 787 789 789 790
790 789 790 790 790 790 790 790 789 789 789 788 790 793 798 805 813 816 815 811 808 805 802 803 801 800 799 797 796 796 794 793 793 792 792 794 796 794 793 796 797 796 799 806 807 803 801 796 791 790 788 786 786 785 787 794 801 803 798 800 805 808 818 821 816 816 813 814 828 834 824 813 802 791 786 784 785 788 789 790 790 790 789 789 789 789 788 787
790 790 790 790 790 791 790 789 789 789 789 788 792 798 802 809 815 817 814 811 809 807 804 804 803 800 798 798 800 799 796 795 795 794 794 795 796 795 792 792 796 797 799 805 805 805 806 796 784 785 786 785 783 779 782 790 799 805 803 801 802 796 798 811 819 817 813 817 825 826 816 802 793 789 787 788 790 789 788 789 790 789 788 788 787 785 784 783
790 790 791 791 791 791 790 790 790 789 789 790 795 803 808 811 815 815 812 809 809 809 806 803 802 802 802 802 801 800 797 796 797 796 796 797 798 796 793 792 794 796 795 799 801 802 803 794 785 788 788 784 781 779 783 786 791 804 806 799 798 794 793 810 827 833 830 819 814 817 810 798 793 787 783 788 788 785 786 787 786 785 784 784 782 778 779 779
790 790 792 792 792 791 791 791 791 790 790 793 800 809 813 813 813 812 809 808 808 809 809 808 806 806 809 808 804 801 798 797 799 799 798 799 797 795 795 795 796 795 791 795 798 797 798 793 785 786 785 782 783 783 785 785 786 797 799 790 794 799 797 801 813 826 830 819 812 817 810 797 795 789 782 786 785 782 782 781 781 783 781 779 777 775 776 775
790 791 792 794 794 793 792 792 792 791 792 798 806 813 815 813 812 811 809 808 808 808 810 811 809 809 812 811 807 803 800 800 802 802 801 800 797 795 796 796 797 795 793 795 797 797 800 797 786 784 786 785 786 785 787 788 787 789 788 784 789 797 798 801 808 813 817 818 815 816 814 803 792 784 779 780 780 777 778 778 780 780 778 776 774 773 774 774
790 792 795 797 796 794 794 793 792 792 795 804 812 815 815 812 811 811 809 808 809 809 811 811 810 811 812 811 808 805 804 803 803 803 803 801 797 795 796 798 796 795 793 793 795 797 800 800 792 787 789 789 786 787 788 788 790 791 789 787 788 789 789 793 798 795 797 809 810 807 809 798 781 775 773 771 771 772 773 776 777 775 774 773 773 772 772 772
792 794 799 799 796 796 795 793 794 796 802 812 816 815 814 813 811 810 809 809 808 808 810 811 811 812 810 809 809 807 806 805 803 804 804 801 798 795 797 799 796 795 794 792 795 797 799 803 798 789 789 791 786 784 782 780 785 789 789 790 790 790 790 790 791 788 788 798 804 802 797 780 767 769 766 761 763 766 768 771 772 771 771 770 770 769 769 770
794 797 802 799 796 797 795 795 803 808 811 816 818 815 814 813 811 810 810 809 807 806 808 809 810 810 810 809 809 807 806 805 803 804 803 800 799 798 800 801 798 796 795 792 795 797 798 802 800 793 790 788 780 776 776 775 775 777 780 781 778 780 787 789 790 790 785 786 790 791 786 767 756 763 762 756 758 760 762 765 766 768 768 767 767 767 767 768
797 802 804 800 797 797 796 803 815 818 815 815 817 816 815 813 812 812 811 810 809 808 808 808 809 810 810 809 809 808 806 805 803 803 802 799 798 797 801 803 799 795 794 796 798 798 798 801 802 797 791 787 780 777 781 782 777 774 774 773 770 772 775 777 780 782 783 784 782 783 783 765 751 758 760 755 755 757 760 763 763 763 764 763 764 765 767 768
804 806 804 800 798 797 799 809 818 818 816 817 818 817 816 815 814 814 813 812 812 811 810 810 810 811 810 811 811 809 807 806 803 801 800 800 798 799 802 802 798 795 795 797 799 800 801 802 803 799 791 785 780 776 780 785 783 780 778 776 777 773 768 769 773 774 778 781 778 784 788 768 751 759 764 760 761 763 764 764 761 759 759 761 762 764 766 767
812 811 807 803 799 797 804 814 817 818 820 819 817 817 817 817 817 816 816 816 815 815 815 813 813 813 813 814 813 810 809 809 805 802 803 802 799 799 802 800 798 798 798 798 800 804 804 804 806 808 802 793 786 780 780 781 783 785 785 783 783 777 773 778 780 779 781 776 769 775 777 760 752 761 766 766 766 764 762 763 762 759 758 759 762 763 765 766
812 811 810 809 803 802 813 821 821 820 823 822 820 820 820 818 818 820 819 819 818 818 817 816 815 815 816 815 814 811 810 809 808 807 807 806 801 799 801 802 800 800 799 799 801 805 808 808 808 811 812 807 798 790 786 786 790 793 789 786 786 783 782 781 779 783 784 773 767 769 764 753 753 760 760 762 764 761 757 760 763 763 760 759 761 762 764 766
812 812 814 814 811 813 822 827 826 824 825 825 823 825 826 821 819 821 821 819 820 819 818 818 816 816 819 818 816 815 813 811 812 811 809 808 804 801 804 804 802 801 800 800 801 804 811 813 807 806 809 806 799 791 789 794 801 798 792 790 789 788 787 786 785 785 779 771 771 768 759 755 756 757 756 756 758 757 753 754 759 760 760 761 761 762 764 765
818 823 827 824 819 821 825 829 830 829 828 828 826 827 830 827 824 822 820 820 821 820 820 821 819 819 822 823 823 822 818 814 814 813 811 810 808 806 806 804 803 801 799 801 803 804 811 812 805 805 807 802 797 793 792 798 803 800 797 795 791 788 789 790 788 779 771 772 771 761 759 763 758 752 752 751 752 753 750 750 754 755 756 758 759 761 763 764
822 830 837 833 828 828 828 830 833 833 831 831 831 831 831 830 829 827 823 822 822 821 820 821 822 824 826 827 827 825 821 817 816 816 816 815 814 812 808 804 803 801 800 803 803 804 809 808 801 802 803 798 797 797 795 797 800 798 798 795 791 788 787 789 787 777 771 773 766 754 758 762 752 746 747 745 744 746 746 748 751 752 754 756 758 760 761 760
829 833 837 835 834 835 836 836 836 834 832 831 833 834 833 832 832 832 830 827 824 823 823 822 822 825 827 828 828 825 822 819 819 822 822 819 819 819 814 807 803 800 800 803 804 805 808 803 798 802 802 796 795 794 791 793 795 794 793 790 788 787 783 783 784 777 774 773 765 759 761 756 744 741 741 740 740 743 746 751 752 751 751 753 755 757 757 757
834 836 837 836 836 838 839 839 837 834 833 834 833 834 836 835 834 835 833 831 828 825 825 826 825 826 826 827 828 825 820 819 821 823 824 823 822 820 816 810 805 803 802 803 805 806 806 801 797 801 803 795 789 788 788 788 790 790 787 783 782 783 781 781 781 776 776 774 767 767 769 756 742 740 739 739 743 746 747 748 748 748 750 751 753 754 754 755
838 839 839 836 836 839 839 840 841 837 834 835 835 835 838 836 836 838 834 829 829 826 825 827 828 827 826 826 827 823 820 821 823 822 821 822 820 817 814 810 807 806 805 804 804 804 804 803 798 800 804 794 784 785 786 785 789 790 784 777 774 774 773 772 770 768 767 766 765 769 767 750 739 742 742 740 742 743 743 742 742 746 750 751 751 751 752 753
840 840 841 838 836 841 842 841 841 837 832 835 837 837 838 836 837 840 835 828 827 826 826 829 829 828 827 825 823 821 820 821 820 818 817 817 815 813 812 809 806 807 806 805 804 802 802 802 797 799 804 793 781 783 786 789 796 790 773 765 764 763 763 763 760 760 759 759 759 759 750 739 739 744 742 738 738 739 738 737 739 743 748 750 749 749 750 752
Wind_Speed
10 10 10 10 10 10 10 10 10 9 9 8 8 8 7 7 7 7 6 6 6 7 8 9 9 10 11 11 11 11 10 8 9 9 4 1 2 2 3 4 4 3 2 5 3 6 5 3 2 2 4 4 2 0 1 1 1 1 1 1 2 2 2 3 4 3 2 5 4 0 0 5 7 3 3 2 7 6 4 4 3 3 3 2 2 5 11 13
10 10 10 10 10 9 10 10 9 9 8 8 8 8 8 7 7 7 6 5 6 7 7 7 8 9 10 11 11 10 10 9 7 4 3 4 4 4 5 5 4 3 3 4 4 4 4 2 1 1 3 2 1 0 0 0 0 1 1 1 2 3 2 1 3 3 2 5 5 2 0 3 5 4 2 2 3 3 4 3 2 3 4 3 3 6 10 11
10 10 10 10 10 10 9 10 9 9 8 8 8 8 7 7 7 7 6 5 6 6 6 7 8 9 10 10 9 9 8 6 2 3 4 3 4 5 4 5 4 5 4 3 3 3 2 2 1 1 2 1 1 0 1 1 1 1 1 1 2 3 2 2 3 3 2 3 6 4 2 2 2 2 1 4 5 3 4 3 1 3 4 5 4 4 8 10
11 11 11 10 10 9 9 9 9 9 9 8 8 7 7 7 6 6 5 5 5 5 6 7 9 9 10 9 7 6 6 2 2 3 3 2 3 4 4 5 6 6 5 2 2 2 3 4 2 2 2 2 2 1 1 2 0 2 1 1 2 3 2 3 3 2 1 1 3 3 4 4 2 1 2 6 6 3 4 4 3 5 9 9 5 4 7 9
11 11 10 10 10 9 9 9 9 9 9 8 8 7 7 7 6 4 4 4 5 5 6 8 9 10 10 7 5 5 4 2 2 2 2 1 3 4 6 7 8 6 4 1 3 3 4 4 2 2 2 2 1 1 1 2 0 2 1 1 1 3 3 3 2 2 2 1 2 3 4 4 2 1 2 5 3 1 1 4 6 7 11 11 7 6 6 6
11 11 10 9 10 10 9 9 9 9 8 8 7 7 7 7 5 4 4 4 5 5 6 8 9 10 9 4 4 4 1 1 0 2 2 0 3 6 8 8 6 2 0 4 5 4 4 3 2 2 2 1 1 1 2 1 1 2 0 0 2 1 1 3 1 2 2 2 3 2 2 2 2 2 1 3 2 1 0 2 5 6 9 10 8 7 7 7
11 11 10 10 10 10 9 9 9 9 8 8 7 7 7 6 5 4 4 4 4 5 6 7 9 10 8 3 3 4 2 1 1 2 2 1 3 6 8 7 5 5 5 6 5 3 3 2 2 2 2 2 1 1 1 1 1 1 1 2 3 1 1 2 1 2 1 2 2 1 2 2 1 3 1 2 0 1 2 1 5 8 9 8 7 7 6 7
11 11 10 10 10 10 9 9 9 8 8 7 7 7 6 5 4 3 3 3 3 4 5 7 9 10 8 4 1 2 1 0 2 3 2 1 2 5 7 7 7 7 6 5 3 4 2 2 2 2 2 2 2 2 1 1 1 1 2 3 3 0 2 3 3 3 2 2 2 2 3 2 1 0 1 1 1 2 1 5 9 9 8 7 7 7 6 5
12 11 10 10 10 9 9 9 8 8 8 8 7 6 5 3 3 2 2 3 3 4 5 6 8 9 8 4 1 1 1 0 3 4 3 2 1 3 6 6 6 5 5 6 3 4 1 1 2 3 2 2 2 2 1 2 1 1 3 3 3 1 3 3 3 3 2 1 0 3 4 2 1 2 1 1 2 1 3 7 9 10 9 8 7 7 6 6
12 11 11 10 10 9 9 9 8 8 8 8 7 6 4 3 2 2 2 2 3 3 4 6 7 8 6 3 2 2 1 1 3 4 3 2 2 2 4 6 5 3 3 5 4 4 1 3 3 2 3 3 2 2 1 1 2 3 4 4 3 2 3 3 2 3 2 1 1 2 3 2 2 2 2 3 3 2 6 8 8 9 10 9 7 6 5 6
12 11 11 11 9 9 9 8 8 8 7 7 7 5 3 2 2 2 2 2 2 3 4 5 7 7 4 3 2 2 1 1 2 2 2 2 3 2 3 5 4 2 3 3 3 3 2 4 5 2 2 2 2 2 1 1 1 3 4 4 5 4 1 3 2 3 2 1 1 3 3 1 2 1 2 3 2 3 6 8 8 8 8 8 7 5 4 5
13 12 11 10 9 8 8 7 7 7 6 6 6 4 3 2 2 2 2 2 2 3 3 5 7 5 3 2 1 2 1 0 1 1 0 2 2 2 3 5 3 2 1 2 1 2 2 4 5 2 1 3 3 2 2 2 1 2 2 3 4 4 1 4 3 1 1 1 1 2 2 2 2 2 2 2 0 2 4 8 8 8 6 5 5 4 5 5
13 12 10 9 9 8 8 7 7 7 6 6 5 4 3 2 2 1 1 2 2 3 3 5 6 3 2 1 1 3 2 2 2 1 1 2 1 2 3 4 3 1 1 2 2 1 1 3 3 3 2 3 2 1 3 4 2 2 3 1 2 1 1 2 3 0 2 1 1 3 3 3 3 3 0 1 3 5 5 7 7 6 5 4 4 4 5 6
13 12 10 9 8 9 9 8 8 8 7 7 6 5 4 3 2 1 1 1 1 2 3 4 4 2 2 1 2 1 3 4 3 2 1 2 1 2 3 5 2 1 1 2 2 2 1 4 4 5 2 2 2 2 2 4 2 1 1 1 1 2 3 2 3 2 5 2 2 3 3 4 4 3 2 1 5 8 7 8 7 6 5 5 5 5 6 7
14 11 10 9 9 9 9 9 9 9 8 8 7 5 4 3 2 1 1 1 2 2 2 3 3 2 1 2 1 2 4 3 2 2 2 2 0 2 2 4 2 1 1 2 2 5 4 6 5 4 2 1 3 4 2 2 2 2 1 2 1 2 2 3 3 2 4 1 2 3 3 3 4 3 2 2 5 8 7 8 8 8 8 7 6 6 7 6
13 11 9 9 8 8 9 9 10 11 11 10 9 6 4 3 2 2 1 1 2 1 2 3 3 2 1 0 2 2 2 2 2 1 2 2 1 2 2 3 2 1 2 1 4 6 7 6 3 2 2 1 2 4 3 1 2 2 1 1 1 1 1 1 2 2 3 1 1 2 2 1 3 4 0 2 5 7 6 6 7 8 8 8 7 6 6 5
13 11 9 9 8 8 9 10 12 13 13 12 8 4 2 2 2 2 1 1 1 2 2 2 2 2 0 1 3 2 2 3 3 1 3 3 2 0 2 2 2 2 5 5 4 3 5 4 1 1 2 2 1 2 3 2 1 1 1 1 1 1 1 0 1 2 3 2 2 0 2 3 2 3 2 1 4 6 7 7 7 7 7 8 7 6 7 6
13 10 9 8 8 9 10 12 14 15 15 11 6 7 5 3 4 3 2 3 3 2 2 1 1 1 0 1 2 2 4 4 3 1 3 3 2 2 3 3 2 3 3 4 3 2 3 2 0 1 2 1 1 2 3 2 2 3 1 2 1 1 2 2 1 0 3 1 3 2 4 7 4 3 4 3 3 7 8 6 4 6 7 8 7 7 8 7
13 10 9 8 8 9 11 13 15 15 15 10 6 9 9 6 6 4 3 4 2 0 1 0 0 0 0 0 1 3 5 4 1 1 3 4 4 6 6 4 3 3 2 1 2 3 2 1 1 2 2 1 1 1 3 3 4 5 3 2 1 1 2 2 1 1 2 1 3 4 5 6 5 5 3 3 3 5 6 4 5 5 6 7 7 8 8 8
12 10 8 8 9 10 12 14 14 14 15 12 6 5 6 4 2 2 0 1 2 2 1 1 2 1 1 1 2 4 5 2 1 2 4 4 5 6 4 5 3 3 2 0 1 1 0 1 2 2 2 2 1 1 4 5 5 5 4 2 1 2 2 1 1 2 2 2 2 2 4 5 5 7 5 2 2 6 7 7 8 7 7 7 8 9 9 9
12 10 8 8 8 9 11 12 12 13 15 15 10 5 2 2 2 2 3 3 3 3 4 3 2 3 4 3 2 4 2 1 1 1 4 4 5 5 1 3 2 2 2 1 1 0 0 1 1 2 1 3 4 3 5 6 4 4 3 2 1 2 2 1 1 2 3 2 0 1 4 6 6 7 7 3 3 7 7 7 7 6 6 7 9 10 9 7
12 9 7 8 8 9 11 11 10 11 13 16 14 7 3 2 2 4 2 3 4 2 3 2 1 4 6 5 5 1 1 1 1 0 3 4 2 2 0 2 2 2 1 1 0 0 0 1 1 2 4 6 6 3 5 6 4 3 2 1 1 1 2 1 0 2 3 2 1 2 5 8 6 8 8 6 6 7 5 5 6 4 5 6 8 9 7 6
12 9 7 7 7 9 10 9 8 9 12 14 12 6 2 7 5 6 4 2 4 2 1 1 1 3 3 3 5 5 2 0 0 1 4 5 1 0 2 3 2 2 1 0 1 1 1 1 1 4 5 6 6 3 5 6 3 1 1 1 1 1 1 1 2 2 2 2 1 2 5 7 5 6 6 3 3 5 4 5 6 6 7 7 7 7 7 7
12 10 7 6 6 8 9 7 6 8 9 9 9 6 7 12 5 6 4 1 2 3 1 2 2 2 1 1 5 6 1 1 2 1 4 5 2 1 2 2 2 2 0 1 3 2 1 1 3 6 3 3 5 2 3 4 1 0 1 2 2 2 2 0 1 1 1 1 1 3 5 4 2 3 2 1 1 4 4 4 6 5 6 6 6 6 7 8
13 10 7 7 6 7 8 5 5 7 5 4 5 8 12 12 2 7 2 1 0 3 1 1 1 1 1 1 4 4 1 1 2 1 3 5 3 2 1 1 1 1 1 2 3 1 0 1 4 6 2 2 5 2 2 3 1 1 3 5 4 3 4 2 0 0 1 1 2 3 4 2 1 3 4 0 2 4 2 4 5 4 3 4 4 5 6 7
14 10 7 7 6 6 6 2 4 7 3 2 5 10 13 10 2 7 2 2 1 2 1 1 1 1 2 2 1 2 1 1 1 0 2 4 3 2 2 1 1 1 3 3 2 1 1 2 2 4 4 3 3 2 3 3 2 1 2 5 5 3 4 3 2 1 2 1 1 2 3 3 2 4 4 1 4 5 2 3 4 2 2 3 3 4 4 6
15 10 6 6 5 5 3 1 4 5 1 2 7 12 13 6 5 6 1 2 1 1 2 2 1 2 2 2 2 1 1 1 1 2 1 2 1 2 1 1 0 2 3 2 1 1 3 3 1 2 3 3 3 3 4 6 3 1 0 5 7 5 5 5 4 2 1 1 0 1 1 4 4 3 2 2 5 5 2 1 2 2 3 3 4 4 5 5
15 11 7 4 4 4 2 0 3 2 1 4 9 14 12 1 5 3 1 2 2 1 1 2 2 2 3 3 2 1 1 2 2 1 2 2 1 2 1 2 3 3 2 2 3 1 3 4 4 4 3 3 4 2 6 8 3 1 3 5 5 3 3 3 3 2 1 2 3 2 3 4 4 2 1 1 5 4 1 0 1 2 4 4 5 6 6 5
15 11 7 4 3 3 0 1 2 1 3 6 11 15 7 4 3 1 2 2 1 1 0 1 2 2 3 3 1 1 1 1 1 1 1 4 3 2 1 1 3 4 2 1 3 1 1 3 4 5 4 4 3 1 6 8 2 2 6 6 5 4 4 3 1 1 2 3 5 4 6 4 3 3 2 1 2 4 3 1 1 3 4 5 6 6 6 5
15 10 6 4 2 1 0 2 2 2 4 8 13 13 3 3 1 2 2 1 1 2 1 1 2 2 4 3 2 2 1 2 1 1 1 2 3 4 2 1 3 3 1 2 1 1 2 1 2 3 3 3 3 4 2 2 3 5 6 6 5 4 3 2 2 1 1 3 4 3 7 4 3 2 3 2 2 2 3 2 3 3 4 6 7 6 6 5
15 8 4 4 2 1 0 1 1 1 5 10 13 8 1 1 2 2 2 0 1 2 2 2 2 2 5 3 2 2 0 1 1 1 1 1 1 3 2 2 2 2 0 1 1 2 2 1 2 2 1 3 5 4 3 3 4 4 3 3 2 1 1 1 1 1 3 4 1 1 4 4 4 3 2 2 3 3 3 4 6 6 5 5 6 7 6 4
14 7 3 4 3 1 1 1 1 3 6 9 9 4 2 1 2 1 1 1 2 2 2 2 3 3 5 2 2 2 0 1 1 1 2 1 1 1 2 3 2 1 2 1 1 3 1 3 2 2 1 4 4 3 3 2 2 2 2 4 4 3 1 2 2 2 4 3 2 2 3 3 5 6 4 4 6 7 5 5 8 8 6 5 4 5 4 3
12 7 5 6 5 3 3 4 5 5 6 7 5 2 3 2 1 0 1 2 1 2 1 2 3 5 4 2 1 2 1 1 1 0 1 1 1 1 1 1 3 2 2 1 0 2 2 2 1 1 2 4 7 6 4 4 5 6 6 6 6 4 1 3 3 1 4 2 2 2 1 2 4 5 7 10 9 6 5 6 8 8 7 6 4 3 3 4
9 9 9 9 8 6 5 4 4 3 5 5 2 2 3 2 1 0 1 1 1 2 2 2 4 5 1 1 3 2 1 1 2 1 1 1 0 1 1 1 2 2 1 1 1 1 4 4 3 5 2 5 12 10 3 4 6 6 4 4 5 5 3 4 3 3 3 1 3 2 2 4 3 0 3 6 4 3 4 6 7 7 7 6 4 4 4 5
9 13 13 13 11 8 7 4 3 2 3 3 3 3 2 1 1 0 1 1 1 3 4 2 2 2 1 1 2 2 1 1 2 1 0 0 1 1 1 2 3 2 2 2 1 1 3 5 3 2 0 7 12 7 4 5 4 2 1 2 4 4 4 1 1 1 1 1 3 3 3 4 2 3 3 3 4 5 6 5 5 7 7 5 4 5 5 4
9 12 14 16 15 10 7 2 1 0 1 3 3 2 1 1 1 1 1 1 1 2 5 4 2 1 2 2 1 3 2 1 2 2 1 1 1 2 1 0 2 4 3 2 2 2 3 4 1 2 1 7 7 4 5 3 3 3 3 5 2 1 3 2 0 2 1 3 3 3 4 3 2 4 4 3 4 6 6 5 6 6 5 5 5 4 3 4
8 9 12 18 20 11 6 4 2 2 2 3 3 1 0 1 1 1 1 1 1 1 2 3 2 1 2 2 2 3 4 2 2 2 2 1 1 1 1 2 1 3 2 1 2 2 3 5 1 1 5 4 1 2 2 1 2 4 5 5 3 1 1 1 2 1 1 5 2 2 5 4 3 3 1 3 6 8 8 7 6 5 4 5 5 4 4 4
6 5 8 19 21 9 6 6 4 3 3 3 2 1 0 0 1 1 1 1 1 1 1 1 1 1 0 1 2 3 4 3 2 2 2 1 1 1 1 1 1 1 2 2 2 0 1 5 3 2 4 2 2 3 2 0 1 1 1 4 4 2 3 3 3 2 3 4 2 2 4 4 6 5 3 6 9 9 10 8 7 7 7 6 5 5 6 5
4 3 3 17 18 5 5 7 4 3 3 2 1 1 0 0 0 1 2 1 0 1 0 2 0 1 0 1 2 2 2 2 1 1 1 1 1 2 3 1 0 3 1 3 2 0 0 4 3 1 1 2 1 4 5 3 1 2 1 3 1 3 3 3 3 3 4 4 1 2 4 4 6 6 7 11 11 11 11 9 8 10 9 7 6 6 6 6
5 2 1 17 15 2 6 8 4 4 3 1 0 1 0 1 0 1 2 2 0 1 1 1 1 1 1 1 2 2 1 2 1 1 1 1 1 0 2 0 2 5 2 2 1 1 1 2 4 1 1 1 2 4 6 7 6 3 4 5 4 2 0 1 2 2 3 4 3 3 5 5 4 5 9 12 10 10 11 10 10 9 9 9 7 7 7 6
5 2 2 18 12 0 5 6 4 3 1 1 1 0 1 1 1 3 2 2 1 1 1 1 2 1 2 1 2 2 1 1 2 2 2 2 2 1 2 1 3 3 2 1 1 0 1 1 4 4 3 5 6 4 4 6 7 7 7 8 9 7 3 5 5 3 3 4 3 3 6 6 3 4 7 9 8 9 11 12 10 9 10 10 8 8 8 6
4 2 4 19 12 0 4 4 1 2 1 1 1 1 2 2 1 3 3 3 2 1 1 1 1 1 2 1 1 2 1 2 2 2 3 3 2 2 1 1 3 2 3 3 1 1 1 1 3 7 5 7 10 6 3 4 5 5 5 5 6 6 7 9 7 4 4 3 1 2 5 4 2 4 7 8 5 6 7 9 10 9 10 9 8 8 7 6
2 1 5 21 13 0 3 3 0 2 1 1 1 1 1 1 0 2 2 3 3 2 2 1 0 1 1 0 1 2 1 1 3 3 3 2 0 1 1 5 6 5 4 2 1 1 1 1 2 5 5 6 9 6 1 1 2 4 4 2 3 6 8 6 3 2 3 4 4 3 4 4 1 2 4 5 3 2 4 7 10 9 7 7 8 7 6 6
2 1 3 19 16 3 3 2 0 1 1 2 2 1 1 1 1 2 2 2 2 1 2 1 1 1 1 1 1 1 1 1 2 2 1 1 0 2 5 9 9 5 3 3 3 2 2 1 1 4 6 6 7 5 2 0 1 2 4 3 4 8 7 2 1 1 3 6 9 7 6 5 1 1 2 4 4 4 5 7 8 7 6 6 6 6 5 5
2 0 2 13 18 9 3 1 1 1 1 2 2 2 2 1 1 2 1 1 1 1 1 1 1 1 1 2 1 1 1 2 2 1 1 1 2 1 6 11 8 3 3 3 3 2 1 2 3 5 8 9 8 6 3 1 2 4 7 8 5 6 7 4 2 3 5 7 8 7 7 4 2 0 4 5 6 7 8 6 6 7 7 6 5 5 4 4
1 2 2 5 10 7 2 2 2 1 0 1 1 1 1 1 2 2 0 1 1 1 1 1 1 1 2 3 2 2 2 1 1 2 2 3 2 1 6 10 6 3 3 6 6 3 1 2 4 6 9 10 11 10 5 3 4 8 11 12 10 8 7 6 3 5 8 7 5 7 10 8 4 5 7 7 8 9 8 7 7 7 8 7 6 5 4 4
1 1 2 2 2 2 2 2 3 2 0 0 1 1 0 1 2 2 0 1 1 2 1 1 2 2 2 3 2 2 2 1 2 3 3 2 2 4 7 6 4 4 3 4 3 2 1 2 5 6 9 12 13 14 11 7 8 11 12 14 15 14 11 9 9 11 10 6 7 11 10 10 11 10 10 10 9 8 8 8 7 7 6 6 5 4 4 5
2 1 0 0 1 1 1 2 3 3 1 0 0 1 0 0 1 2 1 1 2 2 1 0 2 3 1 1 0 2 2 2 3 3 2 2 3 6 7 4 4 5 2 0 1 2 1 4 6 6 9 12 11 13 13 10 9 10 11 13 15 14 13 12 12 14 12 7 11 12 8 12 16 12 12 12 10 9 8 6 5 4 4 5 4 4 5 5
2 1 0 1 0 1 0 3 3 2 1 1 1 1 0 1 1 1 2 2 3 3 1 1 2 4 3 1 2 2 2 3 3 1 1 3 4 4 5 5 4 2 1 1 1 1 2 4 4 5 8 10 11 12 13 12 10 10 12 13 13 14 15 13 12 15 14 12 16 16 10 15 16 10 11 10 6 5 3 2 3 5 5 4 4 5 6 5
2 1 1 1 1 0 1 1 1 1 1 1 0 1 1 1 1 2 2 2 2 2 1 1 3 5 5 1 3 4 3 2 2 2 2 4 4 2 3 4 2 1 3 4 3 2 4 4 2 4 6 10 12 12 12 12 11 11 12 13 13 14 14 12 12 13 12 13 16 12 9 12 8 5 7 6 3 3 3 4 7 6 5 5 5 6 6 5
3 1 1 0 0 2 2 1 1 0 0 0 1 0 1 1 1 3 3 3 4 3 1 3 4 4 3 2 3 5 4 3 4 6 6 6 6 4 4 4 4 5 6 5 3 3 5 4 2 3 7 11 11 11 12 11 10 11 14 15 16 15 13 10 11 11 11 13 13 7 8 9 3 3 4 3 3 5 7 7 6 4 5 6 7 7 6 5
4 1 2 0 0 2 1 0 1 0 0 0 1 1 1 1 0 2 3 2 2 2 1 3 4 3 3 5 5 4 4 4 8 10 9 9 10 10 9 11 12 10 7 5 4 4 5 6 6 6 8 11 12 10 8 7 7 10 12 14 15 14 12 11 9 8 10 11 9 9 10 6 2 3 5 5 6 7 7 7 5 4 6 7 7 7 5 4
Wind_Direction
330 333 331 328 327 326 327 326 325 322 319 318 317 317 317 315 314 315 319 328 341 355 1 358 353 348 344 341 338 337 334 332 324 320 327 45 69 108 90 82 95 73 38 12 47 148 143 144 178 0 138 145 0 106 116 28 89 161 163 138 176 169 159 181 172 191 127 141 163 89 271 128 121 116 142 99 59 84 94 50 23 48 46 33 44 118 139 144
333 334 331 330 329 326 326 325 324 323 321 321 318 316 315 314 316 318 322 337 350 1 2 355 350 346 343 342 338 336 334 330 324 334 83 98 82 83 68 56 47 16 357 6 43 111 138 142 320 54 138 154 6 50 133 11 14 102 127 176 196 173 157 204 162 175 164 139 136 98 214 128 125 128 155 167 94 113 122 67 15 77 81 93 98 120 137 146
334 335 333 332 331 329 327 325 324 323 321 320 318 315 315 315 319 321 325 343 358 5 2 355 350 347 346 342 334 334 334 334 5 108 116 95 70 60 32 10 358 346 338 352 47 71 112 129 132 121 118 110 41 36 132 56 308 156 177 204 174 173 180 214 185 184 207 138 126 122 157 119 114 140 190 158 138 173 179 146 135 135 147 140 129 127 136 143
335 336 335 333 332 329 325 322 323 323 319 317 315 315 314 315 316 319 331 348 3 8 4 358 352 350 349 342 340 344 336 3 108 156 150 94 45 24 352 340 332 323 325 358 101 79 96 108 105 90 101 125 38 0 133 45 283 161 191 198 137 167 160 166 184 181 195 152 126 124 140 125 119 225 160 150 147 206 222 203 201 177 168 161 161 158 143 140
339 337 336 334 332 329 324 322 324 322 319 315 314 314 312 314 314 322 343 357 6 9 5 0 356 353 352 350 6 352 324 92 132 227 164 108 1 355 340 331 323 312 304 138 125 113 111 98 82 72 81 135 83 126 137 29 36 150 194 324 137 172 148 144 160 134 127 125 102 115 137 126 124 69 126 168 184 198 204 218 214 184 166 165 163 162 151 144
341 335 334 333 330 329 326 322 320 318 318 315 314 314 311 313 317 333 351 3 7 8 7 3 358 357 358 10 34 17 343 96 241 219 149 245 344 351 345 341 335 328 112 130 130 121 107 75 74 99 75 100 110 123 119 15 311 188 180 23 166 191 121 138 140 122 135 127 112 121 125 90 118 111 86 226 244 72 23 244 207 178 159 154 149 156 160 159
340 333 331 331 330 330 327 321 317 316 316 312 310 309 310 313 320 335 350 1 8 9 8 3 2 2 9 32 47 52 76 346 271 163 152 255 342 353 359 14 52 88 103 119 128 125 100 70 92 132 95 97 156 104 83 35 357 180 135 130 165 233 11 85 62 105 110 100 111 129 120 80 117 134 131 230 226 348 310 230 169 152 145 148 151 164 170 167
337 335 333 332 329 327 325 321 317 314 310 304 303 302 304 313 320 337 353 5 9 7 8 6 8 9 17 39 64 54 67 44 92 117 147 184 356 6 22 45 72 80 82 85 115 143 113 79 121 172 109 88 165 125 70 131 73 57 142 153 155 87 27 55 46 72 59 62 116 110 93 57 340 343 217 170 58 342 353 139 146 141 145 163 169 174 174 169
338 339 336 331 327 326 324 322 318 313 308 304 304 302 308 318 328 0 7 12 12 7 10 8 11 15 22 39 79 67 45 100 95 95 104 130 85 28 34 48 64 64 63 55 79 138 122 151 165 198 147 102 145 125 306 192 164 132 126 139 132 70 30 58 61 40 40 43 71 98 75 41 345 318 236 74 18 349 127 139 144 145 158 176 179 180 178 175
341 338 335 331 327 326 324 321 318 315 310 307 307 309 321 337 2 27 23 17 7 5 13 9 12 16 23 33 56 86 74 63 110 94 89 131 132 83 34 35 38 34 63 56 76 109 95 174 161 176 136 109 119 106 306 242 138 108 107 102 69 50 31 55 80 18 7 69 14 118 93 19 3 320 205 54 17 153 139 144 155 162 170 182 186 184 186 190
340 337 335 333 329 326 324 324 322 320 316 313 315 319 331 355 29 29 23 11 2 13 15 7 4 6 24 63 73 111 109 78 134 95 83 150 141 132 23 22 25 37 97 74 83 97 74 149 146 136 132 129 123 79 33 355 95 87 110 107 24 6 62 39 52 16 351 130 83 113 102 342 345 294 180 43 16 168 151 156 171 184 180 183 188 187 199 211
341 337 334 333 332 334 339 341 333 330 331 328 326 330 337 358 33 27 17 7 2 17 13 3 356 355 40 86 142 192 208 196 200 230 161 167 139 122 15 10 17 35 123 81 82 96 79 145 141 96 74 158 142 88 99 53 52 71 80 122 23 3 69 18 14 17 332 141 122 155 143 174 217 209 144 47 62 167 164 169 179 195 194 190 195 202 211 223
342 338 337 339 342 349 357 359 354 350 349 344 339 341 344 345 2 5 5 10 16 18 11 0 352 358 67 54 210 187 225 253 230 232 196 180 126 90 22 6 8 50 79 35 60 68 78 165 147 95 80 126 119 156 121 57 26 95 49 103 88 74 157 17 1 306 194 155 100 209 203 169 203 237 277 17 174 160 170 186 192 200 207 210 208 220 223 231
344 341 344 351 358 3 5 7 8 5 1 355 349 344 333 320 321 327 334 351 3 0 359 2 1 41 85 286 237 205 269 263 239 246 211 187 116 107 49 18 20 102 356 339 27 27 109 149 121 110 84 45 112 141 96 48 18 90 80 103 107 182 173 43 7 196 186 146 86 209 223 168 192 251 6 3 179 170 182 195 201 205 213 220 216 226 227 231
347 346 353 5 10 10 11 11 11 8 3 355 348 337 319 300 285 280 264 319 349 354 14 41 36 55 55 298 287 298 292 277 243 257 216 221 115 122 53 25 58 89 327 295 84 67 94 128 95 86 86 7 136 128 79 52 42 41 186 169 101 207 184 30 14 224 207 112 88 212 227 164 200 237 27 36 185 185 194 196 204 212 216 222 217 222 228 232
353 358 6 13 15 15 13 12 10 6 0 351 343 326 299 270 248 222 203 315 342 18 68 78 54 51 94 352 2 357 329 346 11 11 172 193 145 101 6 23 66 54 65 115 130 89 67 88 69 27 92 107 135 119 103 125 90 30 277 177 158 206 193 36 50 345 305 125 123 238 241 168 192 215 79 45 192 196 212 210 213 220 221 227 225 223 226 232
2 10 16 18 20 18 13 13 9 4 1 355 353 349 309 245 213 204 189 30 90 111 101 93 60 36 300 331 352 3 344 338 3 43 139 146 158 26 9 55 57 56 88 85 114 106 35 47 89 8 64 77 109 132 149 176 162 122 5 98 173 236 228 279 102 5 333 227 210 262 248 244 173 168 198 242 199 198 221 225 222 230 232 233 234 233 230 227
10 17 23 23 20 16 14 13 9 7 7 7 30 56 54 101 116 104 124 121 116 107 97 92 61 38 305 18 0 315 312 327 5 86 147 140 141 100 80 90 69 66 83 57 51 31 5 22 336 123 77 68 118 169 186 184 151 142 131 119 127 233 232 279 204 36 355 253 214 202 233 251 244 222 226 221 203 208 225 238 243 244 244 241 237 234 231 223
15 21 30 28 20 17 14 13 12 14 17 27 72 77 64 81 99 97 122 128 133 310 77 106 228 115 1 102 267 304 324 339 29 125 142 135 124 104 76 57 65 77 97 82 42 15 358 73 103 148 150 158 152 186 173 151 137 135 126 129 145 237 247 269 265 339 355 215 209 213 234 258 265 269 241 169 176 228 237 257 262 249 245 245 236 231 228 223
18 23 32 29 21 18 15 15 20 26 31 42 78 89 57 42 52 61 50 168 214 253 267 185 173 255 303 244 307 336 340 358 74 112 131 139 136 119 56 20 35 52 67 161 47 18 337 130 162 185 190 187 178 127 111 110 110 116 115 118 141 254 268 267 283 342 324 232 201 218 260 268 269 280 270 167 173 248 246 247 248 239 235 240 237 233 225 224
19 23 30 28 22 18 16 19 30 43 48 53 64 75 60 24 7 339 329 296 248 247 257 232 180 262 276 255 308 353 357 357 41 107 139 135 138 147 24 9 69 59 43 282 289 324 151 135 193 221 190 122 123 122 105 96 87 98 119 129 135 224 260 336 348 328 326 268 180 41 291 275 261 269 270 259 257 261 257 252 253 241 228 234 239 240 232 228
19 23 29 27 23 17 15 23 40 56 61 60 64 84 126 29 322 253 269 307 291 289 267 260 207 269 274 264 262 239 76 17 14 321 164 138 102 174 234 46 111 120 34 308 232 342 44 176 222 173 136 104 95 103 98 91 89 94 108 160 144 195 269 290 0 329 338 292 271 7 310 291 276 270 267 265 259 264 266 253 265 272 243 235 234 239 240 234
19 22 25 25 22 14 15 29 46 56 61 63 67 88 94 359 337 214 193 300 296 321 319 216 196 241 276 272 216 170 133 161 168 308 178 158 61 277 138 81 104 124 75 100 145 161 183 225 94 139 150 119 96 79 93 96 90 95 114 176 130 77 270 146 97 351 359 351 310 311 301 291 286 283 268 252 254 267 275 257 260 262 250 248 242 242 241 232
15 18 21 19 15 10 13 28 47 45 53 69 64 47 6 354 358 174 170 341 295 308 265 204 205 205 273 291 169 159 145 170 187 297 167 152 99 121 136 116 131 113 81 137 124 164 195 52 116 143 159 115 119 121 123 130 116 130 200 191 151 174 212 217 26 296 316 50 10 304 287 279 301 307 269 126 332 284 290 285 267 248 246 253 250 248 240 233
8 12 15 12 9 7 4 21 46 24 29 82 44 7 355 351 352 169 164 36 287 298 257 186 225 189 320 22 153 172 149 144 235 285 170 158 136 142 122 126 168 122 191 154 125 188 298 63 146 149 137 105 133 162 183 182 194 258 224 203 179 168 176 192 336 263 244 167 46 346 298 278 355 290 259 107 334 289 279 273 262 249 248 243 234 240 237 236
2 5 8 2 1 1 359 31 32 10 18 71 359 347 347 347 157 163 153 45 50 329 340 346 338 8 352 4 163 198 128 105 278 345 165 165 124 107 133 134 357 120 179 165 138 244 87 107 185 157 149 136 127 189 200 180 157 286 246 184 157 132 147 159 161 197 285 292 43 353 288 284 299 276 268 329 317 294 280 253 254 265 262 242 234 238 235 232
355 357 2 356 350 350 2 69 5 6 51 340 338 340 340 341 151 159 192 31 34 339 342 322 327 0 332 328 345 244 221 344 34 71 107 167 98 46 129 187 44 119 165 172 200 207 126 132 142 131 138 148 172 217 190 165 160 230 150 149 153 160 172 167 167 202 298 324 283 103 262 278 281 275 292 329 307 301 317 273 279 299 281 271 265 251 243 236
351 346 350 351 346 347 358 246 343 7 15 334 335 337 336 17 150 170 150 65 27 319 0 340 339 356 332 325 9 63 294 334 52 42 40 80 74 24 349 217 174 134 140 205 242 258 146 173 177 156 141 181 207 205 167 168 185 323 111 128 144 152 156 153 164 169 52 308 270 153 164 252 265 256 306 317 287 284 275 191 239 249 259 259 259 255 247 241
350 337 337 343 336 346 352 254 294 293 326 340 341 337 338 140 140 71 90 90 16 351 2 357 354 342 343 333 345 49 319 330 57 321 34 79 71 56 73 183 135 120 88 241 245 244 201 220 188 160 165 203 209 107 163 176 178 137 124 101 88 81 76 89 123 123 96 287 273 184 179 233 268 251 236 195 249 243 205 180 214 221 241 245 246 252 249 238
351 334 326 331 320 334 1 282 272 263 324 337 337 338 0 134 90 53 64 63 0 351 303 0 353 319 350 356 324 348 278 258 20 15 26 76 49 46 97 152 106 116 65 0 260 250 309 286 182 177 197 179 117 79 118 132 110 140 134 102 91 78 62 70 69 65 188 255 274 193 184 227 281 266 232 216 228 209 185 233 263 230 233 241 240 244 241 233
353 343 324 325 319 207 115 345 218 256 320 330 334 342 62 80 39 96 77 337 291 339 0 355 335 327 0 4 308 332 0 296 333 120 135 165 32 49 118 184 96 106 290 302 267 315 334 205 191 217 191 124 105 91 71 69 118 148 139 125 138 112 90 123 105 116 230 243 317 104 167 203 246 249 214 217 243 229 217 261 270 255 238 230 233 238 236 234
357 359 349 343 335 273 252 297 297 298 314 327 337 1 98 35 32 98 7 305 288 347 13 329 314 336 344 333 244 302 321 316 329 170 156 168 197 163 185 207 178 218 284 225 242 327 270 212 245 312 212 159 146 113 89 100 160 178 160 159 203 226 180 237 215 186 236 242 64 94 151 196 244 259 260 247 242 229 225 248 258 259 255 246 240 235 230 235
8 19 22 19 16 349 313 295 295 304 316 327 342 44 80 77 75 19 334 349 7 7 335 291 306 315 317 315 297 307 255 225 319 226 134 89 221 232 245 207 158 196 284 205 298 322 261 249 161 192 241 185 176 178 176 182 185 188 181 179 205 211 193 236 215 220 257 244 90 113 161 241 253 262 245 236 238 232 230 246 250 255 259 266 276 258 244 240
32 47 47 44 38 24 355 307 278 294 325 341 33 65 62 84 134 134 17 329 332 343 326 303 313 314 331 24 337 323 297 20 19 0 5 38 248 245 251 211 157 123 82 198 261 252 260 281 182 175 193 170 189 205 191 134 168 189 173 172 203 199 208 239 217 228 251 106 108 149 207 216 205 334 247 236 256 265 255 258 255 255 253 261 278 269 258 242
67 65 54 41 30 16 356 321 251 267 333 23 68 62 72 135 244 153 130 288 294 327 324 323 328 334 22 354 344 13 26 9 21 5 327 122 222 230 197 207 186 140 130 204 236 188 254 274 224 217 39 169 192 200 121 111 159 182 107 167 215 202 190 246 306 221 292 86 151 187 237 226 214 312 284 259 285 269 259 262 250 244 233 229 248 242 234 230
96 70 48 30 20 8 354 359 154 305 3 65 66 60 102 198 244 147 142 313 339 324 318 331 37 33 354 329 347 25 13 322 9 2 304 225 241 236 252 330 184 185 176 200 227 201 249 271 307 353 284 196 203 174 148 191 181 143 177 197 204 142 146 151 102 78 54 256 211 169 235 249 263 273 243 208 242 237 232 229 224 228 209 199 228 229 221 228
108 79 46 22 11 7 20 65 78 2 32 78 74 96 188 217 176 184 291 323 319 356 339 347 13 8 351 335 315 356 359 345 23 12 340 308 271 216 278 12 125 216 252 275 255 248 259 274 288 244 246 240 242 123 137 292 127 139 192 181 122 58 123 160 222 118 153 248 240 168 227 234 225 244 180 171 209 208 206 208 213 224 208 203 221 223 226 233
107 99 55 14 3 14 62 46 13 5 61 71 66 105 194 150 137 275 308 319 292 40 55 271 342 8 352 324 306 343 350 334 354 2 341 305 247 129 63 35 71 308 300 170 199 237 273 280 275 220 260 316 83 168 186 18 125 75 212 160 138 219 208 171 196 200 210 231 242 210 227 232 222 218 183 197 204 199 200 201 209 217 208 208 218 220 229 233
76 104 59 2 357 26 48 8 359 43 68 64 72 100 316 281 89 294 301 331 168 85 351 236 271 0 244 275 283 299 314 299 328 348 321 278 237 98 77 161 2 345 321 157 176 253 160 276 276 116 343 352 123 199 212 186 152 13 108 171 223 263 212 180 179 198 218 222 237 219 207 215 218 206 197 205 203 198 198 197 209 214 207 207 211 213 223 225
36 96 30 353 356 24 10 6 39 52 57 90 145 134 334 306 321 299 318 2 36 225 292 207 183 289 244 240 258 262 276 251 241 241 218 257 268 56 70 105 0 2 346 158 162 241 166 250 265 329 14 258 207 205 218 204 186 189 194 193 206 216 232 247 204 175 218 214 206 225 230 226 207 188 200 207 202 196 195 197 206 211 210 212 211 212 216 218
14 108 342 351 356 253 5 27 62 34 87 112 21 234 7 3 337 323 337 12 357 267 292 195 200 235 230 253 254 229 244 243 222 228 224 222 244 245 63 0 312 352 3 13 39 283 229 225 260 281 275 252 252 239 237 235 214 202 200 201 203 193 186 227 218 188 218 223 202 220 245 239 192 170 199 205 199 196 195 197 201 206 213 214 214 216 216 219
25 117 348 356 1 188 32 53 66 11 124 101 354 246 337 4 348 332 338 357 2 352 0 250 227 237 218 250 276 229 244 247 224 229 230 227 234 218 107 331 299 344 9 349 353 225 229 163 263 275 271 273 283 293 306 297 279 254 227 216 216 200 198 221 226 193 190 218 210 239 258 251 169 173 201 204 197 192 193 195 197 205 211 213 217 219 219 229
36 149 357 4 5 171 68 67 294 11 86 315 328 242 317 13 1 339 348 357 3 0 351 344 334 330 235 339 322 261 295 263 230 238 242 244 248 153 78 12 6 21 23 358 346 291 277 173 264 284 288 285 288 290 284 50 307 273 261 258 255 239 227 233 258 217 186 193 190 208 244 244 191 165 205 222 218 186 193 202 203 208 211 215 223 224 223 234
28 227 342 9 17 80 100 61 170 40 4 332 2 354 344 21 357 357 8 357 358 0 340 329 334 0 17 13 310 253 302 279 248 276 284 255 300 94 43 19 19 24 357 328 346 350 305 273 278 298 298 291 288 280 248 150 0 294 294 303 280 265 263 268 26 273 234 215 211 218 236 232 187 90 209 226 234 225 216 213 212 217 222 221 223 225 226 234
35 88 268 9 28 56 89 48 128 109 356 344 6 358 346 352 7 15 3 330 345 334 290 290 330 42 20 336 306 274 284 239 252 339 24 298 289 49 26 8 5 0 346 12 57 88 258 276 269 273 278 278 278 275 257 307 332 312 301 301 299 280 268 255 242 243 240 228 215 222 241 234 107 113 235 217 217 232 229 216 219 231 239 239 232 232 232 232
58 38 298 350 24 47 79 35 46 85 66 11 346 3 3 315 328 349 321 230 340 338 285 289 343 41 23 1 356 326 306 246 247 315 315 294 285 0 1 348 335 324 25 73 95 121 183 248 244 253 266 271 277 286 304 338 304 288 292 296 299 299 287 276 265 241 238 237 229 230 242 250 236 218 228 220 210 225 228 211 212 228 236 242 240 237 237 238
90 66 6 331 354 28 59 39 30 27 0 291 291 353 26 287 317 331 18 131 342 339 339 0 25 42 16 9 7 298 289 285 288 299 291 269 280 327 334 329 310 308 6 82 111 133 137 249 243 237 249 259 270 281 289 291 275 272 281 285 284 287 284 266 248 246 245 237 239 234 224 240 249 224 212 218 211 214 225 219 216 222 224 230 235 233 237 241
57 125 1 311 301 4 34 0 6 10 344 248 336 0 207 179 345 324 321 350 344 350 5 0 47 49 25 355 287 270 289 297 292 302 310 306 333 337 332 320 305 306 317 81 119 117 173 260 245 224 240 250 257 267 270 264 253 251 256 264 270 273 269 257 247 252 254 245 255 254 212 220 242 227 204 212 211 206 215 217 219 225 220 217 217 223 233 235
54 92 305 352 339 161 291 317 330 350 338 313 354 36 100 153 40 327 303 319 337 1 10 276 331 355 339 228 197 241 270 281 282 290 335 332 339 332 314 303 301 316 11 10 13 129 220 258 226 212 248 257 252 254 258 258 256 248 245 248 253 256 257 253 249 253 252 249 261 273 258 238 241 223 200 207 206 197 189 170 207 218 212 203 203 217 223 222
51 55 319 16 66 89 329 331 351 14 356 338 316 38 24 180 61 350 298 242 277 319 32 307 316 322 315 268 193 228 241 239 254 245 264 308 317 295 279 280 267 305 325 318 313 210 232 257 201 194 260 266 256 257 261 257 250 250 256 254 245 246 249 245 246 250 248 246 252 266 272 257 243 204 205 202 165 175 201 216 220 212 203 199 200 210 211 207
52 82 351 52 33 0 339 5 54 1 290 343 190 70 353 165 84 350 296 232 239 257 0 0 325 316 312 277 238 254 252 218 244 257 253 259 262 250 255 260 266 290 291 278 259 220 233 264 252 239 272 272 263 265 268 261 250 253 261 259 250 248 246 234 230 230 229 238 243 240 249 253 218 167 235 237 200 217 229 233 228 204 193 197 196 199 196 191
27 22 36 44 237 19 0 327 30 244 198 115 187 191 253 249 56 343 289 266 244 227 74 14 329 319 305 283 282 298 295 276 278 278 266 256 254 251 250 253 257 265 264 254 250 230 226 254 267 261 270 275 273 273 280 286 273 257 253 253 252 251 246 239 235 224 217 225 231 226 232 238 145 160 229 234 219 225 232 231 220 190 187 189 188 189 182 182